RYR38RJ LMML-LIRZ

Flight info

Callsign RYR38RJ
Flight time 1h 11m
Altitude 36000
Route GZO M622 SOPIR DCT ADEXI DCT PEMAR/N0336F180 L995 TIBER Y106 GITOD
Aircraft B38M/M-SADE3FGILRWY/SB1

Departure

Time 2026-04-27 15:15
Airport Malta International Airport (LMML)

Arrival

Time 2026-04-27 16:26
Airport Perugia San Francesco d'Assisi – Umbria International Airport (LIRZ)
Time Latitude Longitude Altitude Speed Heading
2026-04-27 15:02 35.84861 14.49217 261 ft 0 kts 224°
2026-04-27 15:08 35.84855 14.49210 261 ft 3 kts 224°
2026-04-27 15:09 35.84850 14.49170 261 ft 8 kts 292°
2026-04-27 15:09 35.84899 14.49098 261 ft 14 kts 318°
2026-04-27 15:09 35.84965 14.48995 261 ft 14 kts 297°
2026-04-27 15:09 35.84993 14.48894 261 ft 11 kts 284°
2026-04-27 15:10 35.84998 14.48871 261 ft 2 kts 284°
2026-04-27 15:10 35.84999 14.48865 261 ft 0 kts 284°
2026-04-27 15:12 35.84999 14.48864 261 ft 1 kts 284°
2026-04-27 15:12 35.85018 14.48778 264 ft 23 kts 285°
2026-04-27 15:13 35.85091 14.48574 271 ft 29 kts 306°
2026-04-27 15:13 35.85227 14.48394 274 ft 29 kts 314°
2026-04-27 15:13 35.85359 14.48228 274 ft 26 kts 314°
2026-04-27 15:13 35.85508 14.48086 274 ft 28 kts 334°
2026-04-27 15:14 35.85657 14.48016 274 ft 19 kts 327°
2026-04-27 15:14 35.85634 14.47923 274 ft 14 kts 190°
2026-04-27 15:14 35.85552 14.47990 274 ft 17 kts 134°
2026-04-27 15:14 35.85288 14.48316 274 ft 94 kts 134°
2026-04-27 15:15 35.84642 14.49112 280 ft 163 kts 134°
2026-04-27 15:15 35.83806 14.50134 1028 ft 175 kts 136°
2026-04-27 15:15 35.82877 14.51110 1998 ft 179 kts 152°
2026-04-27 15:15 35.81685 14.51499 2708 ft 182 kts 182°
2026-04-27 15:16 35.80421 14.51088 3205 ft 195 kts 209°
2026-04-27 15:16 35.79496 14.49838 3688 ft 208 kts 246°
2026-04-27 15:16 35.78843 14.48162 4232 ft 224 kts 245°
2026-04-27 15:16 35.78559 14.46229 4800 ft 244 kts 281°
2026-04-27 15:17 35.79298 14.44340 5679 ft 253 kts 309°
2026-04-27 15:17 35.80666 14.42886 6549 ft 266 kts 321°
2026-04-27 15:17 35.82123 14.41503 7782 ft 266 kts 320°
2026-04-27 15:17 35.83581 14.40098 8826 ft 272 kts 320°
2026-04-27 15:18 35.85072 14.38657 10010 ft 275 kts 320°
2026-04-27 15:18 35.86614 14.37161 10929 ft 284 kts 320°
2026-04-27 15:18 35.88182 14.35631 11655 ft 298 kts 320°
2026-04-27 15:18 35.89844 14.34009 12433 ft 310 kts 320°
2026-04-27 15:19 35.91578 14.32319 13348 ft 315 kts 320°
2026-04-27 15:19 35.93285 14.30663 14277 ft 318 kts 319°
2026-04-27 15:19 35.95038 14.28964 15145 ft 322 kts 319°
2026-04-27 15:19 35.96813 14.27242 16004 ft 327 kts 319°
2026-04-27 15:20 35.98612 14.25498 16827 ft 331 kts 319°
2026-04-27 15:20 36.00438 14.23726 17638 ft 336 kts 319°
2026-04-27 15:20 36.02285 14.21935 18420 ft 340 kts 319°
2026-04-27 15:20 36.04186 14.20165 19115 ft 345 kts 322°
2026-04-27 15:21 36.06156 14.18441 19803 ft 348 kts 322°
2026-04-27 15:21 36.08134 14.16697 20468 ft 351 kts 321°
2026-04-27 15:21 36.10133 14.14928 21119 ft 355 kts 321°
2026-04-27 15:21 36.12145 14.13144 21714 ft 358 kts 321°
2026-04-27 15:22 36.14181 14.11338 22310 ft 362 kts 321°
2026-04-27 15:22 36.16233 14.09517 22904 ft 365 kts 321°
2026-04-27 15:22 36.18307 14.07673 23515 ft 369 kts 321°
2026-04-27 15:22 36.20402 14.05811 24043 ft 372 kts 321°
2026-04-27 15:23 36.22510 14.03936 24536 ft 375 kts 321°
2026-04-27 15:23 36.24637 14.02042 25023 ft 378 kts 321°
2026-04-27 15:23 36.26776 14.00136 25511 ft 380 kts 321°
2026-04-27 15:23 36.28930 13.98216 25976 ft 383 kts 321°
2026-04-27 15:24 36.31101 13.96279 26468 ft 386 kts 321°
2026-04-27 15:24 36.33283 13.94331 26942 ft 388 kts 321°
2026-04-27 15:24 36.35486 13.92363 27386 ft 391 kts 321°
2026-04-27 15:24 36.37703 13.90381 27828 ft 394 kts 321°
2026-04-27 15:25 36.39932 13.88386 28270 ft 396 kts 321°
2026-04-27 15:25 36.42176 13.86377 28691 ft 399 kts 321°
2026-04-27 15:25 36.44438 13.84351 29126 ft 402 kts 321°
2026-04-27 15:25 36.46708 13.82315 29559 ft 405 kts 321°
2026-04-27 15:26 36.49001 13.80259 29973 ft 407 kts 321°
2026-04-27 15:26 36.51305 13.78193 30352 ft 410 kts 321°
2026-04-27 15:26 36.53627 13.76111 30705 ft 412 kts 321°
2026-04-27 15:26 36.55956 13.74020 31064 ft 414 kts 321°
2026-04-27 15:27 36.58298 13.71916 31454 ft 415 kts 321°
2026-04-27 15:27 36.60636 13.69815 31922 ft 414 kts 321°
2026-04-27 15:27 36.62965 13.67720 32432 ft 412 kts 321°
2026-04-27 15:27 36.65286 13.65630 32918 ft 410 kts 321°
2026-04-27 15:28 36.67563 13.63580 33388 ft 409 kts 321°
2026-04-27 15:28 36.69893 13.61478 33845 ft 407 kts 321°
2026-04-27 15:28 36.72185 13.59411 34114 ft 410 kts 321°
2026-04-27 15:28 36.74492 13.57327 34092 ft 418 kts 321°
2026-04-27 15:29 36.79293 13.52987 34087 ft 434 kts 321°
2026-04-27 15:29 36.84223 13.48524 34494 ft 436 kts 321°
2026-04-27 15:30 36.86786 13.46510 34938 ft 437 kts 332°
2026-04-27 15:30 36.89688 13.45328 35341 ft 443 kts 344°
2026-04-27 15:30 36.92763 13.44860 35628 ft 449 kts 352°
2026-04-27 15:30 36.95873 13.44538 35894 ft 448 kts 349°
2026-04-27 15:31 36.98979 13.44195 36179 ft 448 kts 350°
2026-04-27 15:31 37.02084 13.43878 36474 ft 448 kts 350°
2026-04-27 15:31 37.05192 13.43572 36746 ft 448 kts 350°
2026-04-27 15:31 37.08305 13.43270 37015 ft 448 kts 350°
2026-04-27 15:32 37.11418 13.42969 37282 ft 448 kts 350°
2026-04-27 15:32 37.14526 13.42669 37550 ft 448 kts 350°
2026-04-27 15:32 37.17638 13.42367 37778 ft 449 kts 350°
2026-04-27 15:32 37.20751 13.42065 38019 ft 449 kts 350°
2026-04-27 15:33 37.23865 13.41763 38256 ft 449 kts 350°
2026-04-27 15:33 37.26986 13.41459 38471 ft 449 kts 349°
2026-04-27 15:33 37.30101 13.41157 38695 ft 449 kts 349°
2026-04-27 15:33 37.33218 13.40854 38865 ft 450 kts 349°
2026-04-27 15:34 37.36339 13.40550 39027 ft 450 kts 350°
2026-04-27 15:34 37.39459 13.40246 39195 ft 450 kts 350°
2026-04-27 15:34 37.42577 13.39942 39368 ft 449 kts 350°
2026-04-27 15:34 37.45694 13.39638 39529 ft 449 kts 350°
2026-04-27 15:35 37.48810 13.39333 39663 ft 449 kts 350°
2026-04-27 15:35 37.50869 13.39132 39758 ft 449 kts 350°
2026-04-27 15:35 37.53986 13.38828 39915 ft 448 kts 350°
2026-04-27 15:35 37.57084 13.38525 40055 ft 447 kts 350°
2026-04-27 15:36 37.63283 13.37916 40094 ft 446 kts 350°
2026-04-27 15:36 37.69480 13.37307 40098 ft 447 kts 350°
2026-04-27 15:37 37.75676 13.36698 40096 ft 447 kts 350°
2026-04-27 15:37 37.81884 13.36086 40101 ft 448 kts 350°
2026-04-27 15:38 37.88094 13.35473 40103 ft 448 kts 351°
2026-04-27 15:38 37.94309 13.34858 40100 ft 448 kts 351°
2026-04-27 15:39 38.00525 13.34243 40108 ft 448 kts 351°
2026-04-27 15:39 38.06746 13.33625 40106 ft 449 kts 351°
2026-04-27 15:40 38.12971 13.33007 40103 ft 449 kts 351°
2026-04-27 15:40 38.19196 13.32387 40108 ft 449 kts 351°
2026-04-27 15:41 38.25384 13.31770 40109 ft 449 kts 351°
2026-04-27 15:41 38.31607 13.31148 40107 ft 449 kts 351°
2026-04-27 15:42 38.37837 13.30525 40109 ft 449 kts 351°
2026-04-27 15:42 38.44063 13.29900 40109 ft 449 kts 351°
2026-04-27 15:43 38.50287 13.29275 40107 ft 449 kts 351°
2026-04-27 15:43 38.56514 13.28649 40111 ft 449 kts 351°
2026-04-27 15:44 38.62735 13.28022 40111 ft 449 kts 351°
2026-04-27 15:44 38.68958 13.27394 40105 ft 448 kts 351°
2026-04-27 15:45 38.75178 13.26765 40109 ft 448 kts 352°
2026-04-27 15:45 38.81394 13.26135 40113 ft 448 kts 352°
2026-04-27 15:46 38.87614 13.25504 40111 ft 448 kts 352°
2026-04-27 15:46 38.93831 13.24872 40112 ft 448 kts 352°
2026-04-27 15:47 39.00050 13.24238 40110 ft 448 kts 352°
2026-04-27 15:47 39.06265 13.23604 40118 ft 448 kts 352°
2026-04-27 15:48 39.12486 13.22968 40111 ft 448 kts 352°
2026-04-27 15:49 39.21819 13.22013 40107 ft 448 kts 352°
2026-04-27 15:49 39.28034 13.21375 40113 ft 448 kts 352°
2026-04-27 15:50 39.34253 13.20735 40108 ft 448 kts 352°
2026-04-27 15:50 39.40461 13.20095 40117 ft 448 kts 352°
2026-04-27 15:51 39.46677 13.19454 40111 ft 448 kts 352°
2026-04-27 15:51 39.52891 13.18812 40113 ft 448 kts 352°
2026-04-27 15:52 39.59094 13.18169 40112 ft 447 kts 352°
2026-04-27 15:52 39.65302 13.17525 40111 ft 447 kts 352°
2026-04-27 15:53 39.71500 13.16880 40112 ft 447 kts 352°
2026-04-27 15:53 39.77700 13.16235 40110 ft 447 kts 352°
2026-04-27 15:54 39.83895 13.15589 40108 ft 446 kts 352°
2026-04-27 15:54 39.90086 13.14941 40105 ft 446 kts 352°
2026-04-27 15:55 39.96234 13.14298 40108 ft 446 kts 352°
2026-04-27 15:55 40.02458 13.13645 40107 ft 446 kts 352°
2026-04-27 15:56 40.08601 13.12999 40105 ft 446 kts 352°
2026-04-27 15:56 40.14774 13.12350 40106 ft 445 kts 352°
2026-04-27 15:57 40.20946 13.11699 40102 ft 445 kts 352°
2026-04-27 15:57 40.27113 13.11047 40105 ft 444 kts 352°
2026-04-27 15:58 40.33276 13.10395 40107 ft 444 kts 352°
2026-04-27 15:58 40.39431 13.09742 40109 ft 444 kts 352°
2026-04-27 15:59 40.45582 13.09089 40103 ft 443 kts 353°
2026-04-27 15:59 40.51732 13.08434 40104 ft 443 kts 353°
2026-04-27 16:00 40.57881 13.07778 40101 ft 443 kts 353°
2026-04-27 16:00 40.64025 13.07122 40103 ft 443 kts 353°
2026-04-27 16:01 40.70171 13.06464 40104 ft 443 kts 352°
2026-04-27 16:01 40.76315 13.05805 40101 ft 443 kts 353°
2026-04-27 16:02 40.82467 13.05144 40101 ft 443 kts 353°
2026-04-27 16:02 40.88611 13.04483 40101 ft 443 kts 353°
2026-04-27 16:03 40.94767 13.03820 40100 ft 443 kts 353°
2026-04-27 16:03 41.00913 13.03156 40100 ft 443 kts 353°
2026-04-27 16:04 41.07060 13.02490 40095 ft 443 kts 353°
2026-04-27 16:04 41.13204 13.01824 40099 ft 443 kts 353°
2026-04-27 16:05 41.19351 13.01156 40105 ft 443 kts 353°
2026-04-27 16:05 41.25489 13.00489 40098 ft 442 kts 353°
2026-04-27 16:06 41.31621 12.99820 40105 ft 442 kts 353°
2026-04-27 16:06 41.37634 12.98413 40101 ft 435 kts 336°
2026-04-27 16:07 41.43364 12.95716 40117 ft 438 kts 339°
2026-04-27 16:07 41.46249 12.94445 39840 ft 435 kts 340°
2026-04-27 16:07 41.49119 12.93193 39287 ft 433 kts 340°
2026-04-27 16:07 41.51989 12.91945 38563 ft 436 kts 340°
2026-04-27 16:08 41.54883 12.90687 37736 ft 438 kts 340°
2026-04-27 16:08 41.57779 12.89428 37059 ft 437 kts 340°
2026-04-27 16:08 41.60660 12.88173 36442 ft 435 kts 340°
2026-04-27 16:08 41.63532 12.86922 35780 ft 435 kts 340°
2026-04-27 16:09 41.66414 12.85665 35073 ft 435 kts 340°
2026-04-27 16:09 41.72181 12.83148 33611 ft 437 kts 340°
2026-04-27 16:09 41.75074 12.81883 32822 ft 438 kts 340°
2026-04-27 16:10 41.80859 12.79349 31348 ft 437 kts 340°
2026-04-27 16:10 41.86658 12.76805 29653 ft 441 kts 340°
2026-04-27 16:11 41.89579 12.75522 28750 ft 442 kts 340°
2026-04-27 16:11 41.95427 12.72948 26984 ft 443 kts 340°
2026-04-27 16:12 42.01322 12.70349 25070 ft 449 kts 341°
2026-04-27 16:12 42.04304 12.69032 24034 ft 453 kts 341°
2026-04-27 16:12 42.10321 12.66369 22273 ft 449 kts 341°
2026-04-27 16:13 42.13249 12.65071 21762 ft 438 kts 341°
2026-04-27 16:13 42.18955 12.62538 20284 ft 430 kts 341°
2026-04-27 16:13 42.21785 12.61281 19588 ft 426 kts 341°
2026-04-27 16:14 42.27290 12.58566 18216 ft 418 kts 338°
2026-04-27 16:14 42.32667 12.55772 16778 ft 409 kts 338°
2026-04-27 16:15 42.37841 12.53093 16099 ft 385 kts 338°
2026-04-27 16:15 42.42713 12.50567 15367 ft 369 kts 339°
2026-04-27 16:16 42.47470 12.48096 14296 ft 365 kts 339°
2026-04-27 16:16 42.52198 12.45638 13138 ft 362 kts 339°
2026-04-27 16:17 42.56886 12.43195 11967 ft 359 kts 339°
2026-04-27 16:17 42.61533 12.40770 10831 ft 356 kts 339°
2026-04-27 16:18 42.66069 12.38399 9719 ft 343 kts 339°
2026-04-27 16:18 42.70443 12.36109 8525 ft 331 kts 339°
2026-04-27 16:19 42.72579 12.34990 7951 ft 326 kts 339°
2026-04-27 16:19 42.74680 12.33888 7391 ft 321 kts 339°
2026-04-27 16:20 42.80226 12.32013 6199 ft 300 kts 13°
2026-04-27 16:20 42.81999 12.33214 5927 ft 289 kts 38°
2026-04-27 16:20 42.84966 12.36598 5507 ft 266 kts 38°
2026-04-27 16:21 42.86396 12.38202 5499 ft 269 kts 39°
2026-04-27 16:21 42.90681 12.43014 5327 ft 248 kts 38°
2026-04-27 16:22 42.92002 12.44499 4831 ft 248 kts 38°
2026-04-27 16:22 42.95055 12.46310 3871 ft 234 kts 12°
2026-04-27 16:22 42.96593 12.46818 3503 ft 222 kts 12°
2026-04-27 16:23 42.98034 12.47308 3180 ft 205 kts 12°
2026-04-27 16:23 43.00554 12.48182 2579 ft 171 kts 12°
2026-04-27 16:23 43.01632 12.48555 2355 ft 156 kts 12°
2026-04-27 16:24 43.02656 12.48915 2107 ft 145 kts 12°
2026-04-27 16:24 43.04629 12.49598 1677 ft 149 kts 13°
2026-04-27 16:25 43.06645 12.50295 1225 ft 153 kts 12°
2026-04-27 16:25 43.08679 12.51004 755 ft 147 kts 11°
2026-04-27 16:26 43.10270 12.51558 675 ft 86 kts 14°
2026-04-27 16:26 43.10754 12.51689 670 ft 14 kts 316°
2026-04-27 16:27 43.10695 12.51475 672 ft 17 kts 192°
2026-04-27 16:27 43.10279 12.51331 672 ft 21 kts 194°
2026-04-27 16:28 43.09966 12.51221 672 ft 26 kts 194°
2026-04-27 16:28 43.09732 12.51042 672 ft 20 kts 246°
2026-04-27 16:29 43.09597 12.50629 670 ft 12 kts 246°
2026-04-27 16:30 43.09486 12.50468 672 ft 2 kts 188°
2026-04-27 16:30 43.09465 12.50427 672 ft 4 kts 247°
2026-04-27 16:31 43.09461 12.50412 668 ft 0 kts 248°